SCP
0 0 0 0 0 0 0 0 0 0 0 0 0 0 0 0 0 0 0 0 0 0 0 0 0 0 0 0 0 0 0 0 1 0 0 0 0 0 0 0 0 0 0 0 0 0 0 0 0 0 1 0 0 0
0 0 0 0 0 0 0 0 0 0 0 0 0 0 0 0 0 0 0 0 0 0 0 0 0 0 -0 0 0 0 0 0 1 0 0 0 0 0 0 0 0 0 0 0 0 1 0 0 0 1 0 0 0 0
0 0 0 0 0 0 0 0 0 0 0 0 0 0 0 0 0 0 0 0 0 0 0 0 0 0 -0 0 0 0 0 1 1 1 0 0 0 -0 0 0 -0 0 0 1 0 0 1 1 0 0 0 0 0 0
0 0 0 0 0 0 0 0 0 0 0 0 0 0 0 0 0 0 0 0 0 0 0 0 0 0 0 0 0 0 0 0 0 0 0 0 0 0 0 0 0 0 0 0 0 0 0 0 0 0 0 0 0 0
0 0 0 0 0 0 0 0 0 0 0 0 0 0 0 0 0 0 0 0 0 0 0 0 0 0 0 0 0 0 0 0 0 0 0 0 0 0 0 0 0 0 1 0 0 0 0 0 0 -0 -0 0 0 0
0 0 0 0 0 0 0 0 0 0 0 0 0 0 0 0 0 0 0 0 0 0 0 0 0 0 0 0 0 0 0 0 0 0 0 0 1 0 0 0 0 0 0 0 0 0 0 0 -0 -0 0 0 0 0
0 0 0 0 0 0 0 0 0 0 0 0 0 0 0 0 0 0 0 0 0 0 0 0 0 0 -0 0 0 0 0 0 0 0 0 0 0 1 0 0 0 -0 0 0 0 0 0 0 0 0 0 0 0 0
0 0 0 0 0 0 0 0 0 0 0 0 0 0 0 0 0 0 0 0 0 0 0 0 0 0 0 0 0 0 0 0 0 0 0 0 0 1 0 0 0 0 0 0 0 1 1 0 0 0 0 0 0 0
0 0 0 0 0 0 0 0 0 0 0 0 0 0 0 0 0 0 0 0 0 0 0 0 0 0 0 0 -0 0 0 0 0 0 0 0 1 1 0 1 0 1 1 0 1 1 1 0 0 0 0 0 0 0
0 0 0 0 0 0 0 0 0 0 0 0 0 0 0 0 0 0 0 0 0 0 0 0 0 0 0 0 0 1 0 1 1 0 0 1 0 1 1 1 1 1 1 1 1 1 1 0 0 0 0 0 0 0
0 0 0 0 0 0 0 0 0 0 0 0 0 0 0 0 0 0 0 0 0 0 0 0 0 0 0 0 0 0 0 0 0 0 0 0 1 0 0 0 0 0 0 0 0 0 0 0 0 0 0 0 0 0
0 0 0 0 0 0 0 0 0 0 0 0 0 0 0 0 0 0 0 0 0 0 0 0 0 0 0 0 0 0 0 -0 -0 0 1 0 0 0 0 0 0 0 0 0 0 0 0 0 0 0 0 0 0 0
0 0 0 0 0 0 0 0 0 0 0 0 0 0 0 0 0 0 0 -0 0 -0 -0 0 0 0 0 0 0 0 0 0 0 0 0 0 0 0 0 0 0 0 0 0 0 0 0 0 0 0 0 0 0 0
0 0 0 0 0 0 0 0 0 0 0 0 0 0 0 0 0 0 0 0 -0 0 0 0 0 0 0 0 0 0 0 0 0 0 0 0 0 0 0 0 0 0 0 0 0 0 0 0 0 0 0 0 0 0
0 0 0 0 0 0 0 0 0 0 0 0 0 0 0 0 0 0 -0 -0 0 -0 -0 -0 -0 0 2 1 1 0 0 0 0 0 0 0 0 0 0 0 0 0 0 0 0 0 0 0 -0 0 -0 0 0 0
0 0 0 0 0 0 0 0 0 0 0 0 0 0 0 0 -0 -0 -0 -0 -0 0 -0 0 0 0 0 0 0 0 0 0 0 0 0 0 0 0 0 0 0 0 0 0 0 0 -0 0 0 0 0 0 0 0
0 0 0 0 0 0 0 0 0 0 0 0 0 0 0 0 0 0 -0 0 0 0 0 0 -0 0 0 0 0 0 0 0 0 0 0 0 0 0 0 0 0 0 0 -0 0 0 0 0 0 0 0 0 0 0
0 0 0 0 0 0 0 0 0 0 0 0 0 0 0 0 0 0 0 0 -0 0 0 0 0 0 0 0 0 0 0 0 0 0 0 0 0 0 0 0 0 0 0 0 -0 0 0 0 0 0 0 0 0 0
0 0 0 0 0 0 0 0 0 0 0 0 0 0 0 0 0 -0 0 0 0 0 0 0 0 0 0 0 0 0 0 0 0 0 0 0 0 0 0 0 0 0 0 0 0 0 0 0 0 0 0 0 0 0
0 0 0 0 0 0 0 0 -0 0 0 0 0 0 0 0 0 0 0 0 0 0 0 0 0 0 0 0 0 0 0 0 0 0 0 0 0 0 -0 0 0 0 -0 0 0 0 0 0 0 0 0 0 0 0
0 0 0 0 0 -0 0 0 0 0 0 0 0 0 0 0 0 0 0 0 0 0 0 0 0 0 0 0 0 0 0 -0 0 0 -0 -0 0 0 0 0 0 0 0 0 0 0 0 0 0 0 0 0 0 0
0 0 0 0 0 -0 -0 0 0 0 0 0 0 0 0 0 0 0 0 0 -0 -0 0 -0 0 0 0 0 0 0 0 0 0 0 0 0 0 0 0 0 0 0 0 0 0 0 0 0 0 0 0 0 0 0
-0 0 0 0 0 0 0 0 0 0 0 0 0 0 0 0 0 0 -0 -0 -0 0 0 0 0 0 0 0 0 0 -0 -0 0 0 0 0 0 0 0 0 0 0 0 0 0 0 0 0 0 0 0 0 0 0
0 0 0 0 0 0 0 0 0 0 0 0 0 0 0 0 0 0 0 0 0 0 0 0 0 0 0 0 0 0 0 0 0 0 0 0 0 0 0 0 0 0 0 0 0 0 0 0 0 0 0 0 0 0
0 0 0 0 0 0 0 0 0 0 -0 -0 0 0 0 0 0 0 0 0 -0 0 0 0 0 0 0 0 0 0 0 0 0 0 0 0 0 0 0 0 0 0 0 0 0 0 0 0 0 0 0 0 0 0
0 0 0 0 0 0 0 0 0 0 0 -0 0 0 0 0 0 -0 0 0 0 -0 -0 0 0 0 0 0 0 0 0 0 0 0 0 0 0 0 0 0 0 0 0 0 0 0 0 0 0 0 0 0 0 0
0 0 0 -0 -0 -0 -0 -0 0 0 0 -0 -0 0 0 -0 -0 0 0 0 -0 -0 -0 -0 -0 0 0 0 0 0 0 0 0 0 0 0 0 0 0 0 0 0 0 0 0 0 0 0 0 0 0 0 0 0
0 0 0 -0 -0 -0 -0 -0 0 0 0 0 0 0 0 0 0 0 0 0 0 0 -0 0 0 0 0 0 0 0 0 0 0 0 0 0 0 0 0 0 0 0 0 0 0 0 0 0 0 0 0 0 0 0
0 0 0 -0 -0 -0 0 -0 0 0 0 0 0 0 0 -0 -0 -0 0 0 0 -0 0 0 0 0 0 0 0 0 0 0 0 0 0 0 0 0 0 0 0 0 0 0 0 0 0 0 0 0 0 0 0 0
0 0 0 0 0 0 0 0 0 0 0 0 0 -0 -0 -0 -0 0 0 0 0 0 0 0 0 0 0 0 0 0 0 0 0 0 0 0 0 0 0 0 0 0 0 0 0 0 0 0 0 0 0 0 0 0
0 0 0 0 0 0 0 0 -0 -0 -0 -0 -0 -0 -0 -0 -0 -0 0 0 0 0 0 0 0 0 0 0 0 0 0 0 0 0 0 0 0 0 0 0 0 0 0 0 0 0 0 0 0 0 0 0 0 0
0 0 0 0 0 0 0 0 0 -0 -0 -0 -0 -0 -0 -0 -0 0 0 0 0 0 0 0 0 0 0 0 0 0 0 0 0 0 0 0 0 0 0 0 0 0 0 0 0 0 0 0 0 0 0 0 0 0
0 0 0 0 -0 0 -0 0 0 0 -0 -0 -0 -0 0 0 0 0 0 0 0 0 0 0 0 0 0 0 0 0 0 0 0 0 0 0 0 0 0 0 0 0 0 0 0 0 0 0 0 0 0 0 0 0
Wind_Speed_500mb
30 30 30 29 29 28 28 29 31 31 33 34 34 34 33 30 29 25 9 15 20 39 68 61 37 31 27 21 5 9 5 47 13 12 18 15 5 15 28 23 21 18 15 19 15 22 14 10 11 19 10 18 20 24
31 31 31 31 29 29 29 29 29 31 31 33 35 34 33 32 29 26 21 22 22 36 64 64 63 59 52 42 30 13 13 15 11 9 10 10 12 9 10 15 8 10 7 8 15 5 8 4 9 11 14 16 16 15
32 32 32 32 30 28 30 30 29 30 31 32 34 35 35 32 30 32 33 24 34 39 59 52 54 30 27 33 35 30 26 15 6 11 48 8 7 9 13 6 19 5 34 11 16 18 45 36 37 25 23 21 15 16
33 33 33 32 31 29 28 30 31 30 30 31 33 34 36 35 33 34 35 26 21 26 21 27 27 26 19 22 33 50 53 33 31 29 33 16 19 5 16 4 5 25 17 24 10 17 38 30 35 42 12 17 14 6
35 33 34 33 31 29 28 29 31 32 32 32 32 33 35 37 35 36 35 29 21 21 31 53 73 52 45 42 37 33 42 43 32 11 13 18 33 16 11 8 13 10 8 9 7 12 14 27 31 36 56 12 10 20
34 33 34 32 31 30 28 28 31 32 33 34 33 33 34 35 33 31 6 12 15 21 15 10 30 38 30 27 37 46 41 29 31 16 22 34 11 28 23 21 27 26 26 27 7 4 12 24 32 36 38 19 17 14
33 33 33 31 29 28 27 29 31 33 33 34 34 33 33 33 32 19 13 8 19 13 15 14 15 32 43 33 32 33 41 37 28 34 37 37 34 7 13 26 36 48 29 5 6 8 9 14 21 19 23 24 23 21
33 33 32 30 29 27 25 29 32 32 33 33 34 35 35 35 39 40 16 25 22 15 16 9 15 32 31 35 41 36 34 39 37 39 30 30 25 3 9 14 35 30 11 16 10 10 10 18 21 24 25 24 21 19
33 34 32 30 28 25 25 29 32 32 32 30 36 32 34 22 13 7 24 24 23 21 14 14 19 19 15 34 42 39 37 15 24 22 32 21 13 11 15 18 25 2 9 18 14 19 19 26 27 24 24 24 28 24
35 34 31 29 27 24 26 29 31 29 25 26 27 8 11 6 20 17 13 16 18 20 24 29 49 30 33 38 15 10 15 3 13 23 37 16 21 18 22 16 24 27 12 9 19 21 25 26 28 22 23 24 27 29
34 31 29 28 24 23 24 26 25 22 10 12 8 9 19 11 7 15 13 21 28 15 24 43 62 39 51 25 8 11 2 7 15 21 21 14 9 24 36 38 29 26 33 39 35 31 24 34 38 36 32 26 20 13
31 29 25 23 23 21 22 23 19 11 16 18 26 33 22 10 19 13 13 18 18 27 32 40 49 56 32 25 16 18 9 8 16 12 10 4 6 26 36 33 29 30 34 33 30 35 37 39 33 28 16 6 5 8
30 28 26 25 23 20 20 18 18 18 16 9 11 9 12 16 8 14 18 21 24 35 39 38 24 47 40 32 25 10 12 18 17 11 10 6 20 22 30 28 30 30 29 29 32 32 28 24 16 15 14 12 13 15
30 29 27 25 22 20 17 17 16 8 5 7 11 11 11 14 15 23 25 28 31 35 30 38 29 25 27 23 11 13 18 15 23 9 10 7 22 33 34 27 25 30 33 35 35 30 27 26 24 19 15 12 12 9
30 28 28 26 22 19 17 16 14 5 7 11 12 11 19 37 48 39 26 43 19 27 39 23 20 27 0 6 6 9 5 1 13 9 5 27 31 27 27 26 30 31 30 28 27 28 31 31 25 19 13 5 7 12
30 27 31 25 21 19 17 11 9 12 11 13 17 21 36 38 31 39 37 21 25 28 7 24 2 9 15 14 13 6 9 12 5 6 22 22 24 26 28 27 27 23 21 20 26 28 23 17 10 7 9 10 11 15
33 21 20 17 19 19 17 12 10 15 15 16 19 41 46 48 37 30 25 25 24 16 7 8 20 21 7 9 9 9 5 6 21 28 28 24 24 26 27 24 18 14 14 21 18 12 8 8 12 13 14 12 19 18
29 26 16 17 13 13 18 17 11 15 25 34 39 42 34 25 42 33 27 24 20 17 13 8 18 11 11 7 6 6 12 34 37 35 30 26 27 24 15 10 16 20 10 3 4 7 7 11 16 17 17 19 22 22
28 26 18 10 22 18 12 16 18 13 22 38 45 48 41 36 19 16 23 19 21 22 18 13 11 8 6 10 17 29 29 35 40 36 30 22 17 13 11 9 5 3 4 2 4 7 4 18 18 18 22 22 25 25
17 18 16 17 28 11 10 15 31 19 30 28 36 41 39 28 21 10 14 21 18 9 14 9 8 12 9 22 28 36 38 39 36 25 17 12 10 10 3 3 3 2 4 7 8 3 17 21 20 20 23 23 25 27
32 21 23 13 10 16 12 14 13 24 37 40 38 30 25 8 12 9 13 18 13 11 9 13 24 32 34 38 38 37 30 17 12 13 11 14 10 9 6 3 4 4 8 12 14 17 21 20 18 23 22 26 26 25
21 24 19 17 11 10 16 20 17 25 27 37 32 19 9 7 5 6 6 16 11 8 8 19 40 35 31 27 22 16 15 13 14 16 18 15 9 5 3 6 10 12 13 14 16 18 18 19 22 19 27 27 29 30
14 24 13 17 15 13 21 25 21 16 9 8 17 9 7 6 7 7 9 9 8 18 31 34 35 29 25 19 16 16 11 7 12 11 9 8 8 6 6 7 10 11 13 15 16 17 19 22 19 25 28 29 33 35
24 15 13 21 28 12 14 13 22 20 9 11 1 8 6 8 9 6 6 7 16 31 34 30 24 21 19 15 11 12 13 11 10 10 7 5 4 6 5 7 7 8 11 15 17 19 22 25 27 29 32 35 35 35
13 15 13 16 18 15 14 16 27 14 6 6 3 4 6 6 4 4 5 15 26 29 28 18 17 15 14 11 11 11 11 8 7 9 10 10 8 7 3 9 11 8 11 18 21 23 26 29 31 32 34 34 36 36
15 14 15 10 24 11 9 8 8 10 8 8 6 9 6 4 4 6 6 29 33 30 35 27 22 14 8 5 10 9 8 7 5 6 7 10 10 10 10 11 11 14 22 20 20 25 29 31 32 33 37 36 35 34
8 10 10 16 12 11 8 10 13 6 5 4 7 8 5 4 4 5 23 34 47 40 22 21 15 5 10 10 9 8 10 13 10 6 6 7 9 11 11 12 13 13 24 18 21 27 30 30 34 36 34 34 32 32
14 7 5 10 5 9 5 5 8 8 5 4 3 3 4 3 4 17 29 43 32 32 28 13 6 9 10 10 8 7 8 7 4 11 7 2 5 7 12 16 15 21 18 16 20 25 26 30 32 32 34 34 35 36
5 2 6 6 5 6 4 2 3 4 7 10 4 5 6 7 24 33 43 48 41 26 18 17 11 11 11 10 10 9 9 9 9 8 7 7 9 14 17 16 18 20 20 22 28 27 22 27 28 32 30 33 35 36
4 4 6 5 4 4 6 8 3 2 6 13 24 40 41 35 39 50 45 31 23 19 15 12 11 8 5 5 6 4 6 8 10 9 8 8 12 13 14 16 18 20 20 22 24 25 29 31 31 31 33 35 36 38
12 8 6 4 4 16 32 44 49 45 42 46 43 50 49 43 34 26 21 18 17 16 15 13 9 7 4 2 1 3 12 6 8 8 7 5 9 11 14 13 17 17 18 22 24 25 28 31 29 32 34 36 38 39
10 9 14 10 18 23 32 38 40 42 41 43 43 42 38 30 25 19 18 17 16 14 12 9 7 6 6 4 4 6 10 5 5 7 11 11 9 11 9 12 14 15 18 21 23 26 28 30 32 34 36 38 40 40
23 29 36 43 41 43 42 40 36 31 29 28 25 21 20 17 9 16 15 10 11 14 12 8 7 7 7 7 6 4 6 5 17 15 21 25 15 11 9 10 15 15 19 21 25 26 26 28 32 34 36 39 40 41
Wind_Direction_500mb
287 290 288 289 293 297 301 307 316 324 328 330 334 334 333 332 334 332 281 338 318 303 289 286 291 310 324 311 41 89 175 291 233 248 268 264 144 249 189 225 265 248 230 248 251 260 304 164 172 220 105 156 206 214
284 288 289 289 290 293 297 301 309 317 321 324 327 331 330 326 326 323 303 292 301 287 277 288 284 276 260 256 266 238 256 249 321 2 337 325 314 336 297 270 301 225 281 283 15 5 191 271 255 145 167 201 209 224
280 285 287 288 289 288 291 296 302 310 315 318 319 323 326 322 319 316 309 319 322 298 299 277 278 286 260 233 227 233 246 263 356 200 278 186 183 97 279 271 250 203 40 34 22 351 351 357 323 292 188 222 207 202
276 281 283 284 287 289 288 291 296 303 309 312 313 316 320 318 313 307 302 292 290 294 291 285 318 285 273 248 226 231 242 263 303 309 285 291 284 325 306 62 72 301 128 184 227 262 278 315 5 314 278 216 208 192
271 277 280 281 286 288 286 288 295 298 304 306 309 312 316 316 313 306 296 279 254 257 296 299 297 269 254 248 237 228 238 252 269 268 269 269 278 282 262 303 240 273 59 234 258 328 205 282 284 227 286 186 161 146
267 273 278 279 283 286 286 287 292 298 300 303 305 308 313 315 315 326 318 151 211 251 280 291 297 287 258 237 233 233 233 235 234 248 259 269 279 41 317 278 278 286 258 246 268 278 240 258 210 232 244 145 152 148
263 269 275 278 281 283 284 286 292 295 300 301 302 303 305 305 296 265 272 249 196 211 267 272 272 251 230 229 234 233 220 226 229 243 244 266 276 187 269 268 285 284 256 251 271 236 233 182 174 173 153 135 130 129
260 266 274 275 278 276 278 287 293 297 300 302 301 297 297 290 283 278 279 262 236 266 257 271 269 285 209 218 224 217 216 215 229 239 244 243 252 115 260 277 275 271 311 297 273 213 196 201 155 136 134 133 134 140
257 265 269 271 271 271 278 289 295 299 303 306 300 302 290 268 241 293 241 249 256 228 287 251 256 277 218 221 234 204 207 204 229 219 240 227 219 223 237 286 303 161 251 281 219 192 159 159 161 161 162 164 153 146
257 262 267 266 262 263 279 291 297 303 309 305 305 271 221 123 240 301 267 211 211 220 229 260 265 280 279 282 304 56 4 272 204 237 238 206 228 177 66 49 18 2 348 349 155 165 169 151 147 148 133 134 134 136
256 256 258 259 249 260 281 291 299 317 2 337 300 283 304 296 280 228 236 204 198 217 214 236 236 252 260 264 268 85 78 221 235 225 205 219 194 63 74 66 58 60 62 61 90 139 142 148 149 140 113 125 140 154
246 245 247 244 244 262 278 283 292 314 297 286 300 304 299 253 224 238 234 218 236 216 242 223 230 222 241 243 259 181 144 135 251 2 343 82 82 85 85 81 75 67 67 74 84 105 114 116 115 123 135 151 254 243
237 234 236 236 246 258 267 273 281 297 303 295 244 253 232 227 251 235 231 224 218 243 232 231 226 213 210 231 230 241 232 204 222 174 156 74 111 98 97 91 76 71 72 77 87 86 86 90 82 68 62 43 42 44
230 230 235 238 239 247 247 262 284 296 251 254 231 236 237 214 221 222 245 256 320 335 311 334 283 212 190 202 216 222 234 254 262 257 72 112 92 86 91 90 83 79 87 89 85 80 73 59 50 39 54 52 16 321
228 232 234 230 232 232 234 256 274 220 261 252 235 240 236 253 278 294 331 324 322 327 349 353 336 325 128 134 342 280 216 250 21 56 47 85 100 100 91 92 99 96 90 85 81 73 68 60 57 45 40 334 318 314
217 222 225 219 217 222 237 260 247 223 253 243 234 255 278 288 326 340 314 314 355 324 9 122 241 280 232 154 136 360 345 36 54 66 104 114 105 107 113 110 105 98 88 75 74 69 58 34 27 347 328 317 311 311
203 210 216 204 207 215 215 207 213 220 242 236 241 245 260 284 309 311 319 336 326 315 271 250 189 212 329 55 65 32 41 93 114 104 116 121 118 118 124 123 109 81 73 94 74 46 38 9 348 331 318 323 316 313
190 199 176 184 185 199 215 218 245 242 234 248 263 265 282 313 309 315 335 342 349 331 305 331 308 4 27 47 93 111 110 106 116 121 122 125 128 122 113 101 103 99 94 112 6 360 347 358 337 337 334 332 326 323
195 174 177 211 188 195 212 215 222 267 260 242 250 258 266 279 283 315 332 334 333 317 326 2 46 36 54 78 110 116 122 127 127 128 125 127 120 114 123 129 137 146 107 60 334 353 360 343 332 339 336 340 335 325
162 181 181 201 204 233 253 225 206 243 271 271 253 245 253 263 289 273 350 353 1 46 46 39 22 10 68 117 140 137 137 133 129 121 119 128 146 155 153 122 129 251 247 281 303 310 344 340 341 345 344 334 320 331
195 211 222 215 250 257 278 289 249 248 246 247 267 245 218 226 265 345 5 360 43 32 66 65 72 91 106 112 118 120 123 119 127 122 132 140 130 127 116 88 342 338 336 344 345 340 343 339 347 341 336 330 333 327
203 205 196 204 236 239 259 247 245 289 291 256 265 231 190 164 155 41 7 42 52 27 70 118 113 107 102 100 99 106 119 117 116 103 92 119 111 94 74 18 360 354 349 352 351 340 338 338 336 337 332 332 328 331
185 169 200 194 219 238 258 238 247 244 258 226 222 208 155 112 102 103 77 68 72 115 123 118 115 111 102 103 110 104 100 93 86 77 77 78 83 58 34 30 14 4 358 354 347 343 339 336 347 335 328 332 334 330
159 199 219 199 203 250 277 240 224 236 265 347 83 106 118 112 123 73 82 78 132 121 122 122 123 119 107 96 98 93 84 85 85 67 44 19 62 49 8 3 6 8 8 354 346 342 337 336 337 336 336 334 332 332
199 237 216 239 209 222 238 245 240 214 169 177 195 127 134 123 100 82 107 142 157 155 138 139 132 115 114 121 100 75 52 58 73 79 48 29 6 349 32 2 4 25 4 351 343 337 338 336 335 335 332 330 330 330
225 223 202 227 225 224 240 262 244 194 161 154 97 102 86 100 121 119 126 153 152 147 148 151 133 153 183 145 98 69 39 40 47 81 44 31 30 23 15 2 351 13 360 345 335 339 337 335 335 333 331 330 332 331
247 248 232 223 276 314 303 333 315 348 70 111 137 128 122 123 123 124 139 161 158 163 155 163 169 211 109 103 92 75 58 51 65 81 59 56 44 40 28 11 351 344 344 340 338 339 337 338 336 333 331 333 334 334
239 254 288 347 37 19 316 19 348 348 18 21 173 81 94 81 101 155 147 148 156 162 151 139 126 126 117 103 87 78 38 6 360 32 327 227 37 33 14 356 344 346 343 336 339 340 336 336 338 337 335 332 333 336
242 334 116 34 37 30 354 359 298 288 306 315 83 94 108 103 132 143 149 149 149 149 150 144 132 121 111 103 89 65 43 48 44 30 19 10 355 345 345 344 339 338 336 336 335 339 343 342 342 338 337 336 336 338
127 121 109 50 20 298 267 217 251 60 71 114 109 112 108 111 127 137 136 141 148 150 149 148 143 149 137 145 127 72 63 51 44 37 30 11 350 340 339 339 344 339 338 338 337 337 341 343 339 338 338 336 337 337
133 110 101 139 107 104 106 106 99 100 100 103 111 113 116 122 124 132 136 142 147 146 141 139 129 117 118 97 104 37 130 77 52 35 40 18 342 338 343 351 341 338 343 341 339 339 340 339 341 340 339 338 338 338
123 147 158 150 156 151 125 109 107 105 108 109 112 116 124 124 121 137 150 145 150 144 137 138 156 140 110 100 77 93 131 98 80 32 20 6 347 342 2 358 342 354 350 349 347 344 342 342 343 343 342 341 341 341
157 168 124 122 126 124 123 115 110 114 119 126 134 133 131 129 123 157 160 164 172 158 156 154 149 153 153 132 129 72 137 223 331 345 352 355 9 30 50 9 6 8 357 357 352 347 346 346 345 344 344 343 340 341
Wind_Speed_850mb
30 30 30 29 29 28 28 29 31 31 33 34 34 34 33 30 29 25 9 15 20 39 68 61 37 31 27 21 5 9 5 47 13 12 18 15 5 15 28 23 21 18 15 19 15 22 14 10 11 19 10 18 20 24
31 31 31 31 29 29 29 29 29 31 31 33 35 34 33 32 29 26 21 22 22 36 64 64 63 59 52 42 30 13 13 15 11 9 10 10 12 9 10 15 8 10 7 8 15 5 8 4 9 11 14 16 16 15
32 32 32 32 30 28 30 30 29 30 31 32 34 35 35 32 30 32 33 24 34 39 59 52 54 30 27 33 35 30 26 15 6 11 48 8 7 9 13 6 19 5 34 11 16 18 45 36 37 25 23 21 15 16
33 33 33 32 31 29 28 30 31 30 30 31 33 34 36 35 33 34 35 26 21 26 21 27 27 26 19 22 33 50 53 33 31 29 33 16 19 5 16 4 5 25 17 24 10 17 38 30 35 42 12 17 14 6
35 33 34 33 31 29 28 29 31 32 32 32 32 33 35 37 35 36 35 29 21 21 31 53 73 52 45 42 37 33 42 43 32 11 13 18 33 16 11 8 13 10 8 9 7 12 14 27 31 36 56 12 10 20
34 33 34 32 31 30 28 28 31 32 33 34 33 33 34 35 33 31 6 12 15 21 15 10 30 38 30 27 37 46 41 29 31 16 22 34 11 28 23 21 27 26 26 27 7 4 12 24 32 36 38 19 17 14
33 33 33 31 29 28 27 29 31 33 33 34 34 33 33 33 32 19 13 8 19 13 15 14 15 32 43 33 32 33 41 37 28 34 37 37 34 7 13 26 36 48 29 5 6 8 9 14 21 19 23 24 23 21
33 33 32 30 29 27 25 29 32 32 33 33 34 35 35 35 39 40 16 25 22 15 16 9 15 32 31 35 41 36 34 39 37 39 30 30 25 3 9 14 35 30 11 16 10 10 10 18 21 24 25 24 21 19
33 34 32 30 28 25 25 29 32 32 32 30 36 32 34 22 13 7 24 24 23 21 14 14 19 19 15 34 42 39 37 15 24 22 32 21 13 11 15 18 25 2 9 18 14 19 19 26 27 24 24 24 28 24
35 34 31 29 27 24 26 29 31 29 25 26 27 8 11 6 20 17 13 16 18 20 24 29 49 30 33 38 15 10 15 3 13 23 37 16 21 18 22 16 24 27 12 9 19 21 25 26 28 22 23 24 27 29
34 31 29 28 24 23 24 26 25 22 10 12 8 9 19 11 7 15 13 21 28 15 24 43 62 39 51 25 8 11 2 7 15 21 21 14 9 24 36 38 29 26 33 39 35 31 24 34 38 36 32 26 20 13
31 29 25 23 23 21 22 23 19 11 16 18 26 33 22 10 19 13 13 18 18 27 32 40 49 56 32 25 16 18 9 8 16 12 10 4 6 26 36 33 29 30 34 33 30 35 37 39 33 28 16 6 5 8
30 28 26 25 23 20 20 18 18 18 16 9 11 9 12 16 8 14 18 21 24 35 39 38 24 47 40 32 25 10 12 18 17 11 10 6 20 22 30 28 30 30 29 29 32 32 28 24 16 15 14 12 13 15
30 29 27 25 22 20 17 17 16 8 5 7 11 11 11 14 15 23 25 28 31 35 30 38 29 25 27 23 11 13 18 15 23 9 10 7 22 33 34 27 25 30 33 35 35 30 27 26 24 19 15 12 12 9
30 28 28 26 22 19 17 16 14 5 7 11 12 11 19 37 48 39 26 43 19 27 39 23 20 27 0 6 6 9 5 1 13 9 5 27 31 27 27 26 30 31 30 28 27 28 31 31 25 19 13 5 7 12
30 27 31 25 21 19 17 11 9 12 11 13 17 21 36 38 31 39 37 21 25 28 7 24 2 9 15 14 13 6 9 12 5 6 22 22 24 26 28 27 27 23 21 20 26 28 23 17 10 7 9 10 11 15
33 21 20 17 19 19 17 12 10 15 15 16 19 41 46 48 37 30 25 25 24 16 7 8 20 21 7 9 9 9 5 6 21 28 28 24 24 26 27 24 18 14 14 21 18 12 8 8 12 13 14 12 19 18
29 26 16 17 13 13 18 17 11 15 25 34 39 42 34 25 42 33 27 24 20 17 13 8 18 11 11 7 6 6 12 34 37 35 30 26 27 24 15 10 16 20 10 3 4 7 7 11 16 17 17 19 22 22
28 26 18 10 22 18 12 16 18 13 22 38 45 48 41 36 19 16 23 19 21 22 18 13 11 8 6 10 17 29 29 35 40 36 30 22 17 13 11 9 5 3 4 2 4 7 4 18 18 18 22 22 25 25
17 18 16 17 28 11 10 15 31 19 30 28 36 41 39 28 21 10 14 21 18 9 14 9 8 12 9 22 28 36 38 39 36 25 17 12 10 10 3 3 3 2 4 7 8 3 17 21 20 20 23 23 25 27
32 21 23 13 10 16 12 14 13 24 37 40 38 30 25 8 12 9 13 18 13 11 9 13 24 32 34 38 38 37 30 17 12 13 11 14 10 9 6 3 4 4 8 12 14 17 21 20 18 23 22 26 26 25
21 24 19 17 11 10 16 20 17 25 27 37 32 19 9 7 5 6 6 16 11 8 8 19 40 35 31 27 22 16 15 13 14 16 18 15 9 5 3 6 10 12 13 14 16 18 18 19 22 19 27 27 29 30
14 24 13 17 15 13 21 25 21 16 9 8 17 9 7 6 7 7 9 9 8 18 31 34 35 29 25 19 16 16 11 7 12 11 9 8 8 6 6 7 10 11 13 15 16 17 19 22 19 25 28 29 33 35
24 15 13 21 28 12 14 13 22 20 9 11 1 8 6 8 9 6 6 7 16 31 34 30 24 21 19 15 11 12 13 11 10 10 7 5 4 6 5 7 7 8 11 15 17 19 22 25 27 29 32 35 35 35
13 15 13 16 18 15 14 16 27 14 6 6 3 4 6 6 4 4 5 15 26 29 28 18 17 15 14 11 11 11 11 8 7 9 10 10 8 7 3 9 11 8 11 18 21 23 26 29 31 32 34 34 36 36
15 14 15 10 24 11 9 8 8 10 8 8 6 9 6 4 4 6 6 29 33 30 35 27 22 14 8 5 10 9 8 7 5 6 7 10 10 10 10 11 11 14 22 20 20 25 29 31 32 33 37 36 35 34
8 10 10 16 12 11 8 10 13 6 5 4 7 8 5 4 4 5 23 34 47 40 22 21 15 5 10 10 9 8 10 13 10 6 6 7 9 11 11 12 13 13 24 18 21 27 30 30 34 36 34 34 32 32
14 7 5 10 5 9 5 5 8 8 5 4 3 3 4 3 4 17 29 43 32 32 28 13 6 9 10 10 8 7 8 7 4 11 7 2 5 7 12 16 15 21 18 16 20 25 26 30 32 32 34 34 35 36
5 2 6 6 5 6 4 2 3 4 7 10 4 5 6 7 24 33 43 48 41 26 18 17 11 11 11 10 10 9 9 9 9 8 7 7 9 14 17 16 18 20 20 22 28 27 22 27 28 32 30 33 35 36
4 4 6 5 4 4 6 8 3 2 6 13 24 40 41 35 39 50 45 31 23 19 15 12 11 8 5 5 6 4 6 8 10 9 8 8 12 13 14 16 18 20 20 22 24 25 29 31 31 31 33 35 36 38
12 8 6 4 4 16 32 44 49 45 42 46 43 50 49 43 34 26 21 18 17 16 15 13 9 7 4 2 1 3 12 6 8 8 7 5 9 11 14 13 17 17 18 22 24 25 28 31 29 32 34 36 38 39
10 9 14 10 18 23 32 38 40 42 41 43 43 42 38 30 25 19 18 17 16 14 12 9 7 6 6 4 4 6 10 5 5 7 11 11 9 11 9 12 14 15 18 21 23 26 28 30 32 34 36 38 40 40
23 29 36 43 41 43 42 40 36 31 29 28 25 21 20 17 9 16 15 10 11 14 12 8 7 7 7 7 6 4 6 5 17 15 21 25 15 11 9 10 15 15 19 21 25 26 26 28 32 34 36 39 40 41
Wind_Direction_850mb
287 290 288 289 293 297 301 307 316 324 328 330 334 334 333 332 334 332 281 338 318 303 289 286 291 310 324 311 41 89 175 291 233 248 268 264 144 249 189 225 265 248 230 248 251 260 304 164 172 220 105 156 206 214
284 288 289 289 290 293 297 301 309 317 321 324 327 331 330 326 326 323 303 292 301 287 277 288 284 276 260 256 266 238 256 249 321 2 337 325 314 336 297 270 301 225 281 283 15 5 191 271 255 145 167 201 209 224
280 285 287 288 289 288 291 296 302 310 315 318 319 323 326 322 319 316 309 319 322 298 299 277 278 286 260 233 227 233 246 263 356 200 278 186 183 97 279 271 250 203 40 34 22 351 351 357 323 292 188 222 207 202
276 281 283 284 287 289 288 291 296 303 309 312 313 316 320 318 313 307 302 292 290 294 291 285 318 285 273 248 226 231 242 263 303 309 285 291 284 325 306 62 72 301 128 184 227 262 278 315 5 314 278 216 208 192
271 277 280 281 286 288 286 288 295 298 304 306 309 312 316 316 313 306 296 279 254 257 296 299 297 269 254 248 237 228 238 252 269 268 269 269 278 282 262 303 240 273 59 234 258 328 205 282 284 227 286 186 161 146
267 273 278 279 283 286 286 287 292 298 300 303 305 308 313 315 315 326 318 151 211 251 280 291 297 287 258 237 233 233 233 235 234 248 259 269 279 41 317 278 278 286 258 246 268 278 240 258 210 232 244 145 152 148
263 269 275 278 281 283 284 286 292 295 300 301 302 303 305 305 296 265 272 249 196 211 267 272 272 251 230 229 234 233 220 226 229 243 244 266 276 187 269 268 285 284 256 251 271 236 233 182 174 173 153 135 130 129
260 266 274 275 278 276 278 287 293 297 300 302 301 297 297 290 283 278 279 262 236 266 257 271 269 285 209 218 224 217 216 215 229 239 244 243 252 115 260 277 275 271 311 297 273 213 196 201 155 136 134 133 134 140
257 265 269 271 271 271 278 289 295 299 303 306 300 302 290 268 241 293 241 249 256 228 287 251 256 277 218 221 234 204 207 204 229 219 240 227 219 223 237 286 303 161 251 281 219 192 159 159 161 161 162 164 153 146
257 262 267 266 262 263 279 291 297 303 309 305 305 271 221 123 240 301 267 211 211 220 229 260 265 280 279 282 304 56 4 272 204 237 238 206 228 177 66 49 18 2 348 349 155 165 169 151 147 148 133 134 134 136
256 256 258 259 249 260 281 291 299 317 2 337 300 283 304 296 280 228 236 204 198 217 214 236 236 252 260 264 268 85 78 221 235 225 205 219 194 63 74 66 58 60 62 61 90 139 142 148 149 140 113 125 140 154
246 245 247 244 244 262 278 283 292 314 297 286 300 304 299 253 224 238 234 218 236 216 242 223 230 222 241 243 259 181 144 135 251 2 343 82 82 85 85 81 75 67 67 74 84 105 114 116 115 123 135 151 254 243
237 234 236 236 246 258 267 273 281 297 303 295 244 253 232 227 251 235 231 224 218 243 232 231 226 213 210 231 230 241 232 204 222 174 156 74 111 98 97 91 76 71 72 77 87 86 86 90 82 68 62 43 42 44
230 230 235 238 239 247 247 262 284 296 251 254 231 236 237 214 221 222 245 256 320 335 311 334 283 212 190 202 216 222 234 254 262 257 72 112 92 86 91 90 83 79 87 89 85 80 73 59 50 39 54 52 16 321
228 232 234 230 232 232 234 256 274 220 261 252 235 240 236 253 278 294 331 324 322 327 349 353 336 325 128 134 342 280 216 250 21 56 47 85 100 100 91 92 99 96 90 85 81 73 68 60 57 45 40 334 318 314
217 222 225 219 217 222 237 260 247 223 253 243 234 255 278 288 326 340 314 314 355 324 9 122 241 280 232 154 136 360 345 36 54 66 104 114 105 107 113 110 105 98 88 75 74 69 58 34 27 347 328 317 311 311
203 210 216 204 207 215 215 207 213 220 242 236 241 245 260 284 309 311 319 336 326 315 271 250 189 212 329 55 65 32 41 93 114 104 116 121 118 118 124 123 109 81 73 94 74 46 38 9 348 331 318 323 316 313
190 199 176 184 185 199 215 218 245 242 234 248 263 265 282 313 309 315 335 342 349 331 305 331 308 4 27 47 93 111 110 106 116 121 122 125 128 122 113 101 103 99 94 112 6 360 347 358 337 337 334 332 326 323
195 174 177 211 188 195 212 215 222 267 260 242 250 258 266 279 283 315 332 334 333 317 326 2 46 36 54 78 110 116 122 127 127 128 125 127 120 114 123 129 137 146 107 60 334 353 360 343 332 339 336 340 335 325
162 181 181 201 204 233 253 225 206 243 271 271 253 245 253 263 289 273 350 353 1 46 46 39 22 10 68 117 140 137 137 133 129 121 119 128 146 155 153 122 129 251 247 281 303 310 344 340 341 345 344 334 320 331
195 211 222 215 250 257 278 289 249 248 246 247 267 245 218 226 265 345 5 360 43 32 66 65 72 91 106 112 118 120 123 119 127 122 132 140 130 127 116 88 342 338 336 344 345 340 343 339 347 341 336 330 333 327
203 205 196 204 236 239 259 247 245 289 291 256 265 231 190 164 155 41 7 42 52 27 70 118 113 107 102 100 99 106 119 117 116 103 92 119 111 94 74 18 360 354 349 352 351 340 338 338 336 337 332 332 328 331
185 169 200 194 219 238 258 238 247 244 258 226 222 208 155 112 102 103 77 68 72 115 123 118 115 111 102 103 110 104 100 93 86 77 77 78 83 58 34 30 14 4 358 354 347 343 339 336 347 335 328 332 334 330
159 199 219 199 203 250 277 240 224 236 265 347 83 106 118 112 123 73 82 78 132 121 122 122 123 119 107 96 98 93 84 85 85 67 44 19 62 49 8 3 6 8 8 354 346 342 337 336 337 336 336 334 332 332
199 237 216 239 209 222 238 245 240 214 169 177 195 127 134 123 100 82 107 142 157 155 138 139 132 115 114 121 100 75 52 58 73 79 48 29 6 349 32 2 4 25 4 351 343 337 338 336 335 335 332 330 330 330
225 223 202 227 225 224 240 262 244 194 161 154 97 102 86 100 121 119 126 153 152 147 148 151 133 153 183 145 98 69 39 40 47 81 44 31 30 23 15 2 351 13 360 345 335 339 337 335 335 333 331 330 332 331
247 248 232 223 276 314 303 333 315 348 70 111 137 128 122 123 123 124 139 161 158 163 155 163 169 211 109 103 92 75 58 51 65 81 59 56 44 40 28 11 351 344 344 340 338 339 337 338 336 333 331 333 334 334
239 254 288 347 37 19 316 19 348 348 18 21 173 81 94 81 101 155 147 148 156 162 151 139 126 126 117 103 87 78 38 6 360 32 327 227 37 33 14 356 344 346 343 336 339 340 336 336 338 337 335 332 333 336
242 334 116 34 37 30 354 359 298 288 306 315 83 94 108 103 132 143 149 149 149 149 150 144 132 121 111 103 89 65 43 48 44 30 19 10 355 345 345 344 339 338 336 336 335 339 343 342 342 338 337 336 336 338
127 121 109 50 20 298 267 217 251 60 71 114 109 112 108 111 127 137 136 141 148 150 149 148 143 149 137 145 127 72 63 51 44 37 30 11 350 340 339 339 344 339 338 338 337 337 341 343 339 338 338 336 337 337
133 110 101 139 107 104 106 106 99 100 100 103 111 113 116 122 124 132 136 142 147 146 141 139 129 117 118 97 104 37 130 77 52 35 40 18 342 338 343 351 341 338 343 341 339 339 340 339 341 340 339 338 338 338
123 147 158 150 156 151 125 109 107 105 108 109 112 116 124 124 121 137 150 145 150 144 137 138 156 140 110 100 77 93 131 98 80 32 20 6 347 342 2 358 342 354 350 349 347 344 342 342 343 343 342 341 341 341
157 168 124 122 126 124 123 115 110 114 119 126 134 133 131 129 123 157 160 164 172 158 156 154 149 153 153 132 129 72 137 223 331 345 352 355 9 30 50 9 6 8 357 357 352 347 346 346 345 344 344 343 340 341